Погода в Конево

Россия / Тюменская область     56°17′17″N   70°42′54″E
темп.,
°C
ветер,
м/с
пор.,
м/с
влажн.,
%
обл.,
%
осадки,
мм/ч
давл.,
гПа
погр.,
м
14 апреля, ср
ср1423:00+3зюз4109219 0.0 1036144
02:00+3юз512955 0.0 1034225
05:00+3зюз71398100 0.0 1033329
08:00+3зюз715100100 0.0 1031374
11:00+7зюз8159896 0.0 1029457
14:00+12з7128310 0.0 1028724
17:00+12з611885 0.0 1028465
20:00+9зюз4109461 0.0 1027153
15 апреля, чт
чт1523:00+9зюз499458 0.0 1027160
02:00+8зюз47955 0.0 1026104
05:00+7зюз49955 0.0 1026144
08:00+10зюз510925 0.0 1025279
11:00+15з69685 0.0 1024673
14:00+17з796433 0.0 10221057
17:00+17зюз610635 0.0 1020860
20:00+12юз512746 0.0 1019269
16 апреля, пт
пт1623:00+10зюз613785 0.0 1018276
02:00+9зюз512815 0.0 1016225
05:00+7зюз5128496 0.0 1016227
08:00+9зсз5983100 0.0 1016431
11:00+5с71192100 0.0 1020624
14:00+6с4869100 0.0 10211116
17:00+8ссв675672 0.0 10221621
20:00+4св486771 0.0 1024271
17 апреля, сб
сб1723:00+1всв49731 0.0 1025338
02:00−1всв37745 0.0 1025295
05:00−1вюв25740 0.0 1024269
08:00+1ю33595 0.0 1023488
11:00+5з565378 0.0 10201598
14:00+7з71048100 0.0 10172154
17:00+6сз81258100 0.4 10161706
20:00+3ссз51053100 0.1 1018371
18 апреля, вс
вс1823:000ссз3665100 0.1 1018131
02:000вюв2372100 0.0 101784
05:00−1юв3673100 0.0 1015208
08:00−1ююв5895100 3.0 1012528
11:00+1ссв349072 4.9 1011608
14:00+1всв4477100 0.1 1013672
17:000св7978100 0.2 10151040
20:00−3ссв9145323 0.0 1019809